contact:dominique.lefevre@mio.osupytheas.fr, maurice.libes@osupytheas.fr, didier.mallarino@osupytheas.fr
Project:EMSO http://www.emso-fr.org/EMSO-France
Depth: 2436.0 m
Title:EMSO Ligure Ouest : Data MII capteur MICROCAT
DateTime_Computer,Latitude,Longitude,Temperature,Conductivity,Pressure,DateTime_Instrument
DateTime_Computer,Latitude,Longitude,degC,S m-1,dbar,DateTime_Instrument
2017-10-28T00:01:28Z,42.805,6.029,13.3004,4.59986,2471.957,2017-10-28T02:02:54Z
2017-10-28T00:03:03Z,42.805,6.029,13.3030,4.59995,2471.934,2017-10-28T02:04:29Z
2017-10-28T00:04:38Z,42.805,6.029,13.3040,4.59983,2471.979,2017-10-28T02:06:04Z
2017-10-28T00:06:13Z,42.805,6.029,13.3008,4.59983,2471.979,2017-10-28T02:07:39Z
2017-10-28T00:07:48Z,42.805,6.029,13.3002,4.59987,2471.957,2017-10-28T02:09:13Z
2017-10-28T00:09:23Z,42.805,6.029,13.2980,4.59991,2471.934,2017-10-28T02:10:48Z
2017-10-28T00:10:57Z,42.805,6.029,13.2985,4.59991,2471.957,2017-10-28T02:12:23Z
2017-10-28T00:12:32Z,42.805,6.029,13.2978,4.59987,2471.957,2017-10-28T02:13:58Z
2017-10-28T00:14:07Z,42.805,6.029,13.3000,4.59983,2471.957,2017-10-28T02:15:33Z
2017-10-28T00:15:42Z,42.805,6.029,13.3024,4.60001,2471.979,2017-10-28T02:17:08Z
2017-10-28T00:17:17Z,42.805,6.029,13.3013,4.59982,2471.957,2017-10-28T02:18:42Z
2017-10-28T00:18:52Z,42.805,6.029,13.3015,4.59981,2471.979,2017-10-28T02:20:17Z
2017-10-28T00:20:26Z,42.805,6.029,13.3023,4.59989,2471.957,2017-10-28T02:21:52Z
2017-10-28T00:22:01Z,42.805,6.029,13.3000,4.60016,2471.919,2017-10-28T02:23:27Z
2017-10-28T00:23:36Z,42.805,6.029,13.3001,4.60003,2471.957,2017-10-28T02:25:02Z
2017-10-28T00:25:11Z,42.805,6.029,13.2988,4.60001,2471.942,2017-10-28T02:26:37Z
2017-10-28T00:26:46Z,42.805,6.029,13.3006,4.60013,2471.957,2017-10-28T02:28:11Z
2017-10-28T00:28:21Z,42.805,6.029,13.2991,4.60024,2471.934,2017-10-28T02:29:46Z
2017-10-28T00:29:55Z,42.805,6.029,13.2996,4.59990,2471.934,2017-10-28T02:31:21Z
2017-10-28T00:31:30Z,42.805,6.029,13.3006,4.59983,2471.957,2017-10-28T02:32:56Z
2017-10-28T00:33:05Z,42.805,6.029,13.2991,4.60005,2471.919,2017-10-28T02:34:31Z
2017-10-28T00:34:40Z,42.805,6.029,13.2984,4.60009,2471.957,2017-10-28T02:36:06Z
2017-10-28T00:36:15Z,42.805,6.029,13.3000,4.59997,2471.971,2017-10-28T02:37:40Z
2017-10-28T00:37:50Z,42.805,6.029,13.2987,4.60030,2471.934,2017-10-28T02:39:15Z
2017-10-28T00:39:24Z,42.805,6.029,13.2987,4.60003,2471.942,2017-10-28T02:40:50Z
2017-10-28T00:40:59Z,42.805,6.029,13.3020,4.60052,2471.957,2017-10-28T02:42:25Z
2017-10-28T00:42:34Z,42.805,6.029,13.3002,4.60012,2471.957,2017-10-28T02:44:00Z
2017-10-28T00:44:09Z,42.805,6.029,13.3003,4.60068,2471.957,2017-10-28T02:45:35Z
2017-10-28T00:45:44Z,42.805,6.029,13.3004,4.60048,2471.919,2017-10-28T02:47:10Z
2017-10-28T00:47:19Z,42.805,6.029,13.2991,4.60029,2471.934,2017-10-28T02:48:44Z
2017-10-28T00:48:53Z,42.805,6.029,13.2996,4.60044,2471.919,2017-10-28T02:50:19Z
2017-10-28T00:50:28Z,42.805,6.029,13.2996,4.60054,2471.979,2017-10-28T02:51:54Z
2017-10-28T00:52:03Z,42.805,6.029,13.3004,4.60032,2471.957,2017-10-28T02:53:29Z
2017-10-28T00:53:38Z,42.805,6.029,13.2996,4.60045,2471.957,2017-10-28T02:55:04Z
2017-10-28T00:55:13Z,42.805,6.029,13.2994,4.60039,2471.934,2017-10-28T02:56:39Z
2017-10-28T00:56:48Z,42.805,6.029,13.2988,4.60040,2471.934,2017-10-28T02:58:13Z
2017-10-28T00:58:22Z,42.805,6.029,13.2998,4.60033,2471.934,2017-10-28T02:59:48Z
2017-10-28T00:59:57Z,42.805,6.029,13.3002,4.60068,2471.957,2017-10-28T03:01:23Z
2017-10-28T01:01:32Z,42.805,6.029,13.2995,4.60028,2471.964,2017-10-28T03:02:58Z
2017-10-28T01:03:07Z,42.805,6.029,13.2981,4.60037,2471.934,2017-10-28T03:04:33Z
2017-10-28T01:04:42Z,42.805,6.029,13.2998,4.60045,2471.957,2017-10-28T03:06:08Z
2017-10-28T01:06:17Z,42.805,6.029,13.2998,4.60040,2471.934,2017-10-28T03:07:42Z
2017-10-28T01:07:51Z,42.805,6.029,13.3017,4.60026,2471.934,2017-10-28T03:09:17Z
2017-10-28T01:09:26Z,42.805,6.029,13.3008,4.59991,2471.957,2017-10-28T03:10:52Z
2017-10-28T01:11:01Z,42.805,6.029,13.3026,4.60037,2471.934,2017-10-28T03:12:27Z
2017-10-28T01:12:36Z,42.805,6.029,13.3018,4.60015,2471.979,2017-10-28T03:14:02Z
2017-10-28T01:14:11Z,42.805,6.029,13.3026,4.60040,2471.957,2017-10-28T03:15:37Z
2017-10-28T01:15:46Z,42.805,6.029,13.2985,4.60053,2471.934,2017-10-28T03:17:11Z
2017-10-28T01:17:20Z,42.805,6.029,13.2989,4.60032,2471.942,2017-10-28T03:18:46Z
2017-10-28T01:18:55Z,42.805,6.029,13.2985,4.60017,2471.934,2017-10-28T03:20:21Z
2017-10-28T01:20:30Z,42.805,6.029,13.2997,4.60015,2471.934,2017-10-28T03:21:56Z
2017-10-28T01:22:05Z,42.805,6.029,13.3002,4.60028,2471.971,2017-10-28T03:23:31Z
2017-10-28T01:23:40Z,42.805,6.029,13.2993,4.60125,2471.957,2017-10-28T03:25:06Z
2017-10-28T01:25:15Z,42.805,6.029,13.3003,4.60030,2471.912,2017-10-28T03:26:40Z
2017-10-28T01:26:49Z,42.805,6.029,13.3006,4.60048,2471.957,2017-10-28T03:28:15Z
2017-10-28T01:28:24Z,42.805,6.029,13.3007,4.60051,2471.919,2017-10-28T03:29:50Z
2017-10-28T01:29:59Z,42.805,6.029,13.3014,4.60027,2471.957,2017-10-28T03:31:25Z
2017-10-28T01:31:34Z,42.805,6.029,13.3011,4.60039,2471.934,2017-10-28T03:33:00Z
2017-10-28T01:33:09Z,42.805,6.029,13.3029,4.60037,2471.957,2017-10-28T03:34:35Z
2017-10-28T01:34:44Z,42.805,6.029,13.3034,4.60021,2471.919,2017-10-28T03:36:09Z
2017-10-28T01:36:19Z,42.805,6.029,13.3039,4.60029,2471.934,2017-10-28T03:37:44Z
2017-10-28T01:37:53Z,42.805,6.029,13.3037,4.60033,2471.957,2017-10-28T03:39:19Z
2017-10-28T01:39:28Z,42.805,6.029,13.3019,4.60028,2471.934,2017-10-28T03:40:54Z
2017-10-28T01:41:03Z,42.805,6.029,13.3026,4.60032,2471.912,2017-10-28T03:42:29Z
2017-10-28T01:42:38Z,42.805,6.029,13.3013,4.60026,2471.897,2017-10-28T03:44:04Z
2017-10-28T01:44:13Z,42.805,6.029,13.3010,4.60029,2471.957,2017-10-28T03:45:38Z
2017-10-28T01:45:48Z,42.805,6.029,13.2991,4.60064,2471.957,2017-10-28T03:47:13Z
2017-10-28T01:47:22Z,42.805,6.029,13.3015,4.60075,2471.919,2017-10-28T03:48:48Z
2017-10-28T01:48:57Z,42.805,6.029,13.3022,4.60035,2471.942,2017-10-28T03:50:23Z
2017-10-28T01:50:32Z,42.805,6.029,13.3019,4.60012,2471.957,2017-10-28T03:51:58Z
2017-10-28T01:52:07Z,42.805,6.029,13.3010,4.60034,2471.897,2017-10-28T03:53:33Z
2017-10-28T01:53:42Z,42.805,6.029,13.3015,4.60021,2471.971,2017-10-28T03:55:07Z
2017-10-28T01:55:17Z,42.805,6.029,13.3022,4.60032,2471.979,2017-10-28T03:56:42Z
2017-10-28T01:56:51Z,42.805,6.029,13.3019,4.60040,2471.934,2017-10-28T03:58:17Z
2017-10-28T01:58:26Z,42.805,6.029,13.3016,4.60018,2471.957,2017-10-28T03:59:52Z
2017-10-28T02:00:01Z,42.805,6.029,13.2988,4.60032,2471.919,2017-10-28T04:01:27Z
2017-10-28T02:01:36Z,42.805,6.029,13.2997,4.60025,2471.957,2017-10-28T04:03:02Z
2017-10-28T02:03:11Z,42.805,6.029,13.3001,4.60040,2471.897,2017-10-28T04:04:36Z
2017-10-28T02:04:46Z,42.805,6.029,13.3000,4.60037,2471.912,2017-10-28T04:06:11Z
2017-10-28T02:06:20Z,42.805,6.029,13.2987,4.60044,2471.957,2017-10-28T04:07:46Z
2017-10-28T02:07:55Z,42.805,6.029,13.2997,4.60023,2471.934,2017-10-28T04:09:21Z
2017-10-28T02:09:30Z,42.805,6.029,13.2984,4.60051,2471.934,2017-10-28T04:10:56Z
2017-10-28T02:11:05Z,42.805,6.029,13.2978,4.60049,2471.934,2017-10-28T04:12:31Z
2017-10-28T02:12:40Z,42.805,6.029,13.2997,4.60023,2471.934,2017-10-28T04:14:05Z
2017-10-28T02:14:15Z,42.805,6.029,13.3010,4.60050,2471.957,2017-10-28T04:15:40Z
2017-10-28T02:15:49Z,42.805,6.029,13.2966,4.60043,2471.957,2017-10-28T04:17:15Z
2017-10-28T02:17:24Z,42.805,6.029,13.2970,4.60028,2471.934,2017-10-28T04:18:50Z
2017-10-28T02:18:59Z,42.805,6.029,13.2993,4.60057,2471.934,2017-10-28T04:20:25Z
2017-10-28T02:20:34Z,42.805,6.029,13.2991,4.60019,2471.912,2017-10-28T04:22:00Z
2017-10-28T02:22:09Z,42.805,6.029,13.3005,4.60062,2471.957,2017-10-28T04:23:34Z
2017-10-28T02:23:44Z,42.805,6.029,13.2990,4.60014,2471.934,2017-10-28T04:25:09Z
2017-10-28T02:25:18Z,42.805,6.029,13.2993,4.60042,2471.934,2017-10-28T04:26:44Z
2017-10-28T02:26:53Z,42.805,6.029,13.2994,4.60023,2471.957,2017-10-28T04:28:19Z
2017-10-28T02:28:28Z,42.805,6.029,13.2985,4.60066,2471.957,2017-10-28T04:29:54Z
2017-10-28T02:30:03Z,42.805,6.029,13.2998,4.60035,2471.912,2017-10-28T04:31:29Z
2017-10-28T02:31:38Z,42.805,6.029,13.2989,4.60029,2471.957,2017-10-28T04:33:04Z
2017-10-28T02:33:13Z,42.805,6.029,13.2985,4.60014,2471.957,2017-10-28T04:34:38Z
2017-10-28T02:34:47Z,42.805,6.029,13.3000,4.60024,2471.934,2017-10-28T04:36:13Z
2017-10-28T02:36:22Z,42.805,6.029,13.3021,4.60049,2471.934,2017-10-28T04:37:48Z
2017-10-28T02:37:57Z,42.805,6.029,13.3010,4.60017,2471.934,2017-10-28T04:39:23Z
2017-10-28T02:39:32Z,42.805,6.029,13.2982,4.60022,2471.934,2017-10-28T04:40:58Z
2017-10-28T02:41:07Z,42.805,6.029,13.3000,4.60044,2471.934,2017-10-28T04:42:33Z
2017-10-28T02:42:42Z,42.805,6.029,13.2982,4.60018,2471.889,2017-10-28T04:44:07Z
2017-10-28T02:44:16Z,42.805,6.029,13.2993,4.60038,2471.919,2017-10-28T04:45:42Z
2017-10-28T02:45:51Z,42.805,6.029,13.2992,4.60035,2471.934,2017-10-28T04:47:17Z
2017-10-28T02:47:26Z,42.805,6.029,13.3000,4.60015,2471.934,2017-10-28T04:48:52Z
2017-10-28T02:49:01Z,42.805,6.029,13.2999,4.60032,2471.957,2017-10-28T04:50:27Z
2017-10-28T02:50:36Z,42.805,6.029,13.2988,4.60036,2471.934,2017-10-28T04:52:02Z
2017-10-28T02:52:11Z,42.805,6.029,13.2988,4.60044,2471.912,2017-10-28T04:53:36Z
2017-10-28T02:53:45Z,42.805,6.029,13.2989,4.60032,2471.912,2017-10-28T04:55:11Z
2017-10-28T02:55:20Z,42.805,6.029,13.3002,4.60066,2471.919,2017-10-28T04:56:46Z
2017-10-28T02:56:55Z,42.805,6.029,13.3008,4.60044,2471.919,2017-10-28T04:58:21Z
2017-10-28T02:58:30Z,42.805,6.029,13.3009,4.60041,2471.934,2017-10-28T04:59:56Z
2017-10-28T03:00:05Z,42.805,6.029,13.3011,4.60069,2471.912,2017-10-28T05:01:31Z
2017-10-28T03:01:40Z,42.805,6.029,13.3009,4.60031,2471.912,2017-10-28T05:03:05Z
2017-10-28T03:03:14Z,42.805,6.029,13.3004,4.60042,2471.934,2017-10-28T05:04:40Z
2017-10-28T03:04:49Z,42.805,6.029,13.2988,4.60068,2471.919,2017-10-28T05:06:15Z
2017-10-28T03:06:24Z,42.805,6.029,13.3001,4.60066,2471.912,2017-10-28T05:07:50Z
2017-10-28T03:07:59Z,42.805,6.029,13.2997,4.60016,2471.957,2017-10-28T05:09:25Z
2017-10-28T03:09:34Z,42.805,6.029,13.3012,4.60015,2471.897,2017-10-28T05:11:00Z
2017-10-28T03:11:09Z,42.805,6.029,13.2987,4.59983,2471.934,2017-10-28T05:12:34Z
2017-10-28T03:12:43Z,42.805,6.029,13.2990,4.60014,2471.942,2017-10-28T05:14:09Z
2017-10-28T03:14:18Z,42.805,6.029,13.3002,4.60001,2471.934,2017-10-28T05:15:44Z
2017-10-28T03:15:53Z,42.805,6.029,13.3004,4.60032,2471.957,2017-10-28T05:17:19Z
2017-10-28T03:17:28Z,42.805,6.029,13.3000,4.60027,2471.912,2017-10-28T05:18:54Z
2017-10-28T03:19:03Z,42.805,6.029,13.2988,4.60034,2471.934,2017-10-28T05:20:29Z
2017-10-28T03:20:38Z,42.805,6.029,13.2999,4.60007,2471.957,2017-10-28T05:22:03Z
2017-10-28T03:22:13Z,42.805,6.029,13.2999,4.60040,2471.934,2017-10-28T05:23:38Z
2017-10-28T03:23:47Z,42.805,6.029,13.2992,4.60013,2471.934,2017-10-28T05:25:13Z
2017-10-28T03:25:22Z,42.805,6.029,13.2997,4.60035,2471.957,2017-10-28T05:26:48Z
2017-10-28T03:26:57Z,42.805,6.029,13.3000,4.60046,2471.912,2017-10-28T05:28:23Z
2017-10-28T03:28:32Z,42.805,6.029,13.2998,4.59995,2471.934,2017-10-28T05:29:58Z
2017-10-28T03:30:07Z,42.805,6.029,13.3008,4.60046,2471.934,2017-10-28T05:31:32Z
2017-10-28T03:31:42Z,42.805,6.029,13.2992,4.60029,2471.919,2017-10-28T05:33:07Z
2017-10-28T03:33:16Z,42.805,6.029,13.3023,4.60021,2471.919,2017-10-28T05:34:42Z
2017-10-28T03:34:51Z,42.805,6.029,13.3026,4.60010,2471.934,2017-10-28T05:36:17Z
2017-10-28T03:36:26Z,42.805,6.029,13.3011,4.60001,2471.934,2017-10-28T05:37:52Z
2017-10-28T03:38:01Z,42.805,6.029,13.3000,4.59991,2471.957,2017-10-28T05:39:27Z
2017-10-28T03:39:36Z,42.805,6.029,13.3011,4.60000,2471.934,2017-10-28T05:41:01Z
2017-10-28T03:41:11Z,42.805,6.029,13.2996,4.60009,2471.934,2017-10-28T05:42:36Z
2017-10-28T03:42:45Z,42.805,6.029,13.2996,4.60015,2471.927,2017-10-28T05:44:11Z
2017-10-28T03:44:20Z,42.805,6.029,13.2998,4.60027,2471.934,2017-10-28T05:45:46Z
2017-10-28T03:45:55Z,42.805,6.029,13.2974,4.60011,2471.912,2017-10-28T05:47:21Z
2017-10-28T03:47:30Z,42.805,6.029,13.2969,4.60041,2471.957,2017-10-28T05:48:56Z
2017-10-28T03:49:05Z,42.805,6.029,13.2958,4.60034,2471.957,2017-10-28T05:50:30Z
2017-10-28T03:50:40Z,42.805,6.029,13.2964,4.60033,2471.919,2017-10-28T05:52:05Z
2017-10-28T03:52:14Z,42.805,6.029,13.2964,4.60024,2471.897,2017-10-28T05:53:40Z
2017-10-28T03:53:49Z,42.805,6.029,13.2948,4.60022,2471.912,2017-10-28T05:55:15Z
2017-10-28T03:55:24Z,42.805,6.029,13.2959,4.60001,2471.934,2017-10-28T05:56:50Z
2017-10-28T03:56:59Z,42.805,6.029,13.2965,4.60047,2471.934,2017-10-28T05:58:25Z
2017-10-28T03:58:34Z,42.805,6.029,13.2979,4.60006,2471.934,2017-10-28T05:59:59Z
2017-10-28T04:00:09Z,42.805,6.029,13.2999,4.60022,2471.934,2017-10-28T06:01:34Z
2017-10-28T04:01:43Z,42.805,6.029,13.2988,4.60024,2471.942,2017-10-28T06:03:09Z
2017-10-28T04:03:18Z,42.805,6.029,13.2999,4.59993,2471.934,2017-10-28T06:04:44Z
2017-10-28T04:04:53Z,42.805,6.029,13.2968,4.60023,2471.934,2017-10-28T06:06:19Z
2017-10-28T04:06:28Z,42.805,6.029,13.2986,4.60057,2471.934,2017-10-28T06:07:54Z
2017-10-28T04:08:03Z,42.805,6.029,13.2984,4.60056,2471.912,2017-10-28T06:09:28Z
2017-10-28T04:09:38Z,42.805,6.029,13.2987,4.60003,2471.919,2017-10-28T06:11:03Z
2017-10-28T04:11:12Z,42.805,6.029,13.2971,4.60055,2471.919,2017-10-28T06:12:38Z
2017-10-28T04:12:47Z,42.805,6.029,13.2998,4.60016,2471.957,2017-10-28T06:14:13Z
2017-10-28T04:14:22Z,42.805,6.029,13.2980,4.60008,2471.912,2017-10-28T06:15:48Z
2017-10-28T04:15:57Z,42.805,6.029,13.2966,4.60019,2471.934,2017-10-28T06:17:23Z
2017-10-28T04:17:32Z,42.805,6.029,13.2970,4.60014,2471.934,2017-10-28T06:18:58Z
2017-10-28T04:19:07Z,42.805,6.029,13.2961,4.60008,2471.957,2017-10-28T06:20:32Z
2017-10-28T04:20:41Z,42.805,6.029,13.2979,4.60028,2471.919,2017-10-28T06:22:07Z
2017-10-28T04:22:16Z,42.805,6.029,13.2988,4.60070,2471.934,2017-10-28T06:23:42Z
2017-10-28T04:23:51Z,42.805,6.029,13.2986,4.60070,2471.912,2017-10-28T06:25:17Z
2017-10-28T04:25:26Z,42.805,6.029,13.3002,4.60028,2471.919,2017-10-28T06:26:52Z
2017-10-28T04:27:01Z,42.805,6.029,13.2976,4.60059,2471.934,2017-10-28T06:28:27Z
2017-10-28T04:28:36Z,42.805,6.029,13.2983,4.60040,2471.912,2017-10-28T06:30:01Z
2017-10-28T04:30:10Z,42.805,6.029,13.2993,4.60069,2471.912,2017-10-28T06:31:36Z
2017-10-28T04:31:45Z,42.805,6.029,13.3000,4.60029,2471.897,2017-10-28T06:33:11Z
2017-10-28T04:33:20Z,42.805,6.029,13.2989,4.60108,2471.919,2017-10-28T06:34:46Z
2017-10-28T04:34:55Z,42.805,6.029,13.2996,4.60046,2471.934,2017-10-28T06:36:21Z
2017-10-28T04:36:30Z,42.805,6.029,13.2996,4.60032,2471.934,2017-10-28T06:37:56Z
2017-10-28T04:38:05Z,42.805,6.029,13.2987,4.60037,2471.934,2017-10-28T06:39:30Z
2017-10-28T04:39:39Z,42.805,6.029,13.2994,4.60040,2471.934,2017-10-28T06:41:05Z
2017-10-28T04:41:14Z,42.805,6.029,13.2984,4.60020,2471.942,2017-10-28T06:42:40Z
2017-10-28T04:42:49Z,42.805,6.029,13.2968,4.60055,2471.912,2017-10-28T06:44:15Z
2017-10-28T04:44:24Z,42.805,6.029,13.2976,4.59999,2471.934,2017-10-28T06:45:50Z
2017-10-28T04:45:59Z,42.805,6.029,13.2986,4.60027,2471.934,2017-10-28T06:47:25Z
2017-10-28T04:47:34Z,42.805,6.029,13.2989,4.60025,2471.912,2017-10-28T06:48:59Z
2017-10-28T04:49:09Z,42.805,6.029,13.2996,4.60016,2471.912,2017-10-28T06:50:34Z
2017-10-28T04:50:43Z,42.805,6.029,13.2971,4.59993,2471.934,2017-10-28T06:52:09Z
2017-10-28T04:52:18Z,42.805,6.029,13.2958,4.60018,2471.934,2017-10-28T06:53:44Z
2017-10-28T04:53:53Z,42.805,6.029,13.2957,4.60008,2471.957,2017-10-28T06:55:19Z
2017-10-28T04:55:28Z,42.805,6.029,13.2951,4.60015,2471.912,2017-10-28T06:56:54Z
2017-10-28T04:57:03Z,42.805,6.029,13.2957,4.59992,2471.919,2017-10-28T06:58:28Z
2017-10-28T04:58:38Z,42.805,6.029,13.2949,4.60016,2471.934,2017-10-28T07:00:03Z
2017-10-28T05:00:12Z,42.805,6.029,13.2953,4.60029,2471.934,2017-10-28T07:01:38Z
2017-10-28T05:01:47Z,42.805,6.029,13.2954,4.60028,2471.912,2017-10-28T07:03:13Z
2017-10-28T05:03:22Z,42.805,6.029,13.2964,4.59998,2471.934,2017-10-28T07:04:48Z
2017-10-28T05:04:57Z,42.805,6.029,13.2967,4.59992,2471.949,2017-10-28T07:06:23Z
2017-10-28T05:06:32Z,42.805,6.029,13.2957,4.59991,2471.934,2017-10-28T07:07:57Z
2017-10-28T05:08:06Z,42.805,6.029,13.2964,4.59993,2471.912,2017-10-28T07:09:32Z
2017-10-28T05:09:41Z,42.805,6.029,13.2959,4.60021,2471.919,2017-10-28T07:11:07Z
2017-10-28T05:11:16Z,42.805,6.029,13.3005,4.60019,2471.919,2017-10-28T07:12:42Z
2017-10-28T05:12:51Z,42.805,6.029,13.2973,4.60007,2471.957,2017-10-28T07:14:17Z
2017-10-28T05:14:26Z,42.805,6.029,13.2979,4.59994,2471.919,2017-10-28T07:15:52Z
2017-10-28T05:16:01Z,42.805,6.029,13.2978,4.59982,2471.912,2017-10-28T07:17:26Z
2017-10-28T05:17:36Z,42.805,6.029,13.2979,4.60000,2471.957,2017-10-28T07:19:01Z
2017-10-28T05:19:10Z,42.805,6.029,13.2987,4.59983,2471.912,2017-10-28T07:20:36Z
2017-10-28T05:20:45Z,42.805,6.029,13.2967,4.59989,2471.949,2017-10-28T07:22:11Z
2017-10-28T05:22:20Z,42.805,6.029,13.2971,4.59993,2471.934,2017-10-28T07:23:46Z
2017-10-28T05:23:55Z,42.805,6.029,13.2968,4.60006,2471.934,2017-10-28T07:25:21Z
2017-10-28T05:25:30Z,42.805,6.029,13.2945,4.59988,2471.919,2017-10-28T07:26:55Z
2017-10-28T05:27:05Z,42.805,6.029,13.2970,4.59979,2471.934,2017-10-28T07:28:30Z
2017-10-28T05:28:39Z,42.805,6.029,13.2957,4.60002,2471.957,2017-10-28T07:30:05Z
2017-10-28T05:30:14Z,42.805,6.029,13.2962,4.60000,2471.912,2017-10-28T07:31:40Z
2017-10-28T05:31:49Z,42.805,6.029,13.2968,4.60008,2471.897,2017-10-28T07:33:15Z
2017-10-28T05:33:24Z,42.805,6.029,13.2966,4.59995,2471.919,2017-10-28T07:34:50Z
2017-10-28T05:34:59Z,42.805,6.029,13.2960,4.59973,2471.889,2017-10-28T07:36:24Z
2017-10-28T05:36:34Z,42.805,6.029,13.2958,4.59999,2471.919,2017-10-28T07:37:59Z
2017-10-28T05:38:08Z,42.805,6.029,13.2968,4.59988,2471.912,2017-10-28T07:39:34Z
2017-10-28T05:39:43Z,42.805,6.029,13.2960,4.59999,2471.897,2017-10-28T07:41:09Z
2017-10-28T05:41:18Z,42.805,6.029,13.2953,4.60001,2471.934,2017-10-28T07:42:44Z
2017-10-28T05:42:53Z,42.805,6.029,13.2970,4.59991,2471.934,2017-10-28T07:44:19Z
2017-10-28T05:44:28Z,42.805,6.029,13.2975,4.59995,2471.934,2017-10-28T07:45:53Z
2017-10-28T05:46:03Z,42.805,6.029,13.2965,4.60010,2471.897,2017-10-28T07:47:28Z
2017-10-28T05:47:37Z,42.805,6.029,13.2968,4.60009,2471.912,2017-10-28T07:49:03Z
2017-10-28T05:49:12Z,42.805,6.029,13.2958,4.60010,2471.934,2017-10-28T07:50:38Z
2017-10-28T05:50:47Z,42.805,6.029,13.2959,4.60002,2471.912,2017-10-28T07:52:13Z
2017-10-28T05:52:22Z,42.805,6.029,13.2956,4.59999,2471.912,2017-10-28T07:53:48Z
2017-10-28T05:53:57Z,42.805,6.029,13.2955,4.59978,2471.897,2017-10-28T07:55:23Z
2017-10-28T05:55:32Z,42.805,6.029,13.2957,4.59993,2471.957,2017-10-28T07:56:57Z
2017-10-28T05:57:06Z,42.805,6.029,13.2955,4.60007,2471.912,2017-10-28T07:58:32Z
2017-10-28T05:58:41Z,42.805,6.029,13.2968,4.59973,2471.912,2017-10-28T08:00:07Z
2017-10-28T06:00:16Z,42.805,6.029,13.2952,4.59987,2471.957,2017-10-28T08:01:42Z
2017-10-28T06:01:51Z,42.805,6.029,13.2951,4.60002,2471.912,2017-10-28T08:03:17Z
2017-10-28T06:03:26Z,42.805,6.029,13.2950,4.60000,2471.934,2017-10-28T08:04:52Z
2017-10-28T06:05:01Z,42.805,6.029,13.2951,4.59987,2471.912,2017-10-28T08:06:26Z
2017-10-28T06:06:35Z,42.805,6.029,13.2962,4.59984,2471.957,2017-10-28T08:08:01Z
2017-10-28T06:08:10Z,42.805,6.029,13.2970,4.59972,2471.934,2017-10-28T08:09:36Z
2017-10-28T06:09:45Z,42.805,6.029,13.2961,4.59971,2471.957,2017-10-28T08:11:11Z
2017-10-28T06:11:20Z,42.805,6.029,13.2960,4.59981,2471.912,2017-10-28T08:12:46Z
2017-10-28T06:12:55Z,42.805,6.029,13.2957,4.60005,2471.912,2017-10-28T08:14:21Z
2017-10-28T06:14:30Z,42.805,6.029,13.2958,4.59995,2471.934,2017-10-28T08:15:55Z
2017-10-28T06:16:04Z,42.805,6.029,13.2954,4.60003,2471.934,2017-10-28T08:17:30Z
2017-10-28T06:17:39Z,42.805,6.029,13.2962,4.59998,2471.919,2017-10-28T08:19:05Z
2017-10-28T06:19:14Z,42.805,6.029,13.2959,4.59978,2471.897,2017-10-28T08:20:40Z
2017-10-28T06:20:49Z,42.805,6.029,13.2959,4.59982,2471.934,2017-10-28T08:22:15Z
2017-10-28T06:22:24Z,42.805,6.029,13.2966,4.59975,2471.912,2017-10-28T08:23:50Z
2017-10-28T06:23:59Z,42.805,6.029,13.2975,4.59989,2471.912,2017-10-28T08:25:24Z
2017-10-28T06:25:33Z,42.805,6.029,13.2964,4.59979,2471.919,2017-10-28T08:26:59Z
2017-10-28T06:27:08Z,42.805,6.029,13.2963,4.59977,2471.912,2017-10-28T08:28:34Z
2017-10-28T06:28:43Z,42.805,6.029,13.2955,4.59982,2471.934,2017-10-28T08:30:09Z
2017-10-28T06:30:18Z,42.805,6.029,13.2955,4.59981,2471.934,2017-10-28T08:31:44Z
2017-10-28T06:31:53Z,42.805,6.029,13.2942,4.59995,2471.912,2017-10-28T08:33:19Z
2017-10-28T06:33:28Z,42.805,6.029,13.2957,4.59980,2471.934,2017-10-28T08:34:53Z
2017-10-28T06:35:03Z,42.805,6.029,13.2970,4.59992,2471.912,2017-10-28T08:36:28Z
2017-10-28T06:36:37Z,42.805,6.029,13.2951,4.59994,2471.934,2017-10-28T08:38:03Z
2017-10-28T06:38:12Z,42.805,6.029,13.2965,4.59992,2471.934,2017-10-28T08:39:38Z
2017-10-28T06:39:47Z,42.805,6.029,13.2957,4.59998,2471.889,2017-10-28T08:41:13Z
2017-10-28T06:41:22Z,42.805,6.029,13.2949,4.60012,2471.919,2017-10-28T08:42:48Z
2017-10-28T06:42:57Z,42.805,6.029,13.2949,4.59995,2471.912,2017-10-28T08:44:22Z
2017-10-28T06:44:32Z,42.805,6.029,13.2971,4.59978,2471.949,2017-10-28T08:45:57Z
2017-10-28T06:46:06Z,42.805,6.029,13.2979,4.59981,2471.934,2017-10-28T08:47:32Z
2017-10-28T06:47:41Z,42.805,6.029,13.2979,4.59982,2471.919,2017-10-28T08:49:07Z
2017-10-28T06:49:16Z,42.805,6.029,13.2993,4.59970,2471.912,2017-10-28T08:50:42Z
2017-10-28T06:50:51Z,42.805,6.029,13.2961,4.59996,2471.934,2017-10-28T08:52:17Z
2017-10-28T06:52:26Z,42.805,6.029,13.2967,4.60003,2471.919,2017-10-28T08:53:51Z
2017-10-28T06:54:01Z,42.805,6.029,13.2964,4.59990,2471.934,2017-10-28T08:55:26Z
2017-10-28T06:55:35Z,42.805,6.029,13.2961,4.59975,2471.919,2017-10-28T08:57:01Z
2017-10-28T06:57:10Z,42.805,6.029,13.2978,4.59976,2471.934,2017-10-28T08:58:36Z
2017-10-28T06:58:45Z,42.805,6.029,13.2958,4.59981,2471.912,2017-10-28T09:00:11Z
2017-10-28T07:00:20Z,42.805,6.029,13.2964,4.59976,2471.912,2017-10-28T09:01:46Z
2017-10-28T07:01:55Z,42.805,6.029,13.2965,4.59972,2471.912,2017-10-28T09:03:20Z
2017-10-28T07:03:30Z,42.805,6.029,13.2958,4.59983,2471.934,2017-10-28T09:04:55Z
2017-10-28T07:05:04Z,42.805,6.029,13.2980,4.60003,2471.934,2017-10-28T09:06:30Z
2017-10-28T07:06:39Z,42.805,6.029,13.2964,4.59982,2471.912,2017-10-28T09:08:05Z
2017-10-28T07:08:14Z,42.805,6.029,13.2958,4.59974,2471.897,2017-10-28T09:09:40Z
2017-10-28T07:09:49Z,42.805,6.029,13.2949,4.59984,2471.912,2017-10-28T09:11:15Z
2017-10-28T07:11:24Z,42.805,6.029,13.2966,4.59975,2471.934,2017-10-28T09:12:49Z
2017-10-28T07:12:59Z,42.805,6.029,13.2949,4.59973,2471.912,2017-10-28T09:14:24Z
2017-10-28T07:14:33Z,42.805,6.029,13.2952,4.59975,2471.934,2017-10-28T09:15:59Z
2017-10-28T07:16:08Z,42.805,6.029,13.2966,4.59986,2471.934,2017-10-28T09:17:34Z
2017-10-28T07:17:43Z,42.805,6.029,13.2959,4.59988,2471.912,2017-10-28T09:19:09Z
2017-10-28T07:19:18Z,42.805,6.029,13.2957,4.59990,2471.919,2017-10-28T09:20:44Z
2017-10-28T07:20:53Z,42.805,6.029,13.2958,4.59979,2471.919,2017-10-28T09:22:18Z
2017-10-28T07:22:28Z,42.805,6.029,13.2961,4.59974,2471.957,2017-10-28T09:23:53Z
2017-10-28T07:24:02Z,42.805,6.029,13.2960,4.59973,2471.942,2017-10-28T09:25:28Z
2017-10-28T07:25:37Z,42.805,6.029,13.2955,4.59978,2471.934,2017-10-28T09:27:03Z
2017-10-28T07:27:12Z,42.805,6.029,13.2962,4.59978,2471.919,2017-10-28T09:28:38Z
2017-10-28T07:28:47Z,42.805,6.029,13.2961,4.59982,2471.934,2017-10-28T09:30:13Z
2017-10-28T07:30:22Z,42.805,6.029,13.2968,4.59975,2471.934,2017-10-28T09:31:48Z
2017-10-28T07:31:57Z,42.805,6.029,13.2960,4.59976,2471.897,2017-10-28T09:33:22Z
2017-10-28T07:33:31Z,42.805,6.029,13.2958,4.59973,2471.934,2017-10-28T09:34:57Z
2017-10-28T07:35:06Z,42.805,6.029,13.2956,4.59977,2471.957,2017-10-28T09:36:32Z
2017-10-28T07:36:41Z,42.805,6.029,13.2957,4.59977,2471.919,2017-10-28T09:38:07Z
2017-10-28T07:38:16Z,42.805,6.029,13.2960,4.59971,2471.957,2017-10-28T09:39:42Z
2017-10-28T07:39:51Z,42.805,6.029,13.2963,4.59980,2471.919,2017-10-28T09:41:17Z
2017-10-28T07:41:26Z,42.805,6.029,13.2957,4.59980,2471.934,2017-10-28T09:42:51Z
2017-10-28T07:43:00Z,42.805,6.029,13.2964,4.59979,2471.934,2017-10-28T09:44:26Z
2017-10-28T07:44:35Z,42.805,6.029,13.2952,4.59975,2471.942,2017-10-28T09:46:01Z
2017-10-28T07:46:10Z,42.805,6.029,13.2955,4.59977,2471.957,2017-10-28T09:47:36Z